Regional Weather Roundup
Issued by NWS Mobile, AL

Home | Current Version | Previous Version | Text Only | Print | Product List | Glossary On
Versions: 1 2 3 4 5 6 7 8 9 10 11 12 13 14 15 16 17 18 19 20 21 22 23 24 25 26 27
000
ASUS44 KMOB 032013
RWRMOB
REGIONAL WEATHER ROUNDUP
NATIONAL WEATHER SERVICE MOBILE AL
200 PM CST SAT DEC 03 2016

NOTE: "FAIR" INDICATES FEW OR NO CLOUDS BELOW 12,000 FEET WITH NO
      SIGNIFICANT WEATHER AND/OR OBSTRUCTIONS TO VISIBILITY.

  * THESE STATIONS ARE PART OF THE UNIVERSITY OF SOUTH ALABAMA
    MESONET AND ARE NOT UNDER NWS OR FAA QUALITY CONTROL.

ALZ061>064-032100-
COASTAL ALABAMA

CITY           SKY/WX    TMP DP  RH WIND       PRES   REMARKS
MOBILE REG APT CLOUDY    63  34  33 NE14      30.11F
BROOKLEY FIELD CLOUDY    65  39  38 NE13      30.12F
USA CAMPUS*      N/A     63  36  36 NE12      30.11F
DOG RIVER*       N/A     64  39  39 NE5       30.89S


CITY           SKY/WX    TMP DP  RH WIND       PRES   REMARKS
GULF SHORES    PTSUNNY   63  43  47 NE13G20   30.10F

$$

ALZ051>060-032100-
INTERIOR SOUTHWEST AND SOUTH CENTRAL ALABAMA

CITY           SKY/WX    TMP DP  RH WIND       PRES   REMARKS
GREENVILLE     CLOUDY    57  35  43 N7        30.18R
EVERGREEN      CLOUDY    58  37  45 N5        30.17R
ATMORE*          N/A     61  34  36 NE14      30.14F
ANDALUSIA/OPP  CLOUDY    63  36  36 NE3       30.16R
ANDALUSIA*       N/A     59  36  41 E7        30.14S
FLORALA APT    CLOUDY    61  35  37 E9        30.16R
FLORALA*         N/A     61  36  39 N7        30.90R

$$

FLZ001>006-032100-
WESTERN FLORIDA PANHANDLE

CITY           SKY/WX    TMP DP  RH WIND       PRES   REMARKS
PENSACOLA      CLOUDY    69  33  26 E8        30.10F
NAS PENSACOLA  PTSUNNY   65  36  34 E10       30.10F
MILTON         LGT RAIN  64  32  30 E15G22    30.11F
WHTNG S FIELD  CLOUDY    67  35  30 E12       30.11F


CITY           SKY/WX    TMP DP  RH WIND       PRES   REMARKS
JAY*             N/A     63  32  31 N8        30.13F
DUKE FIELD     MOSUNNY   64  34  31 NE9       30.11S
CRESTVIEW      CLOUDY    65  33  30 NE8       30.14S
VALPARAISO     PTSUNNY   66  34  30 E8        30.10F
DESTIN         CLOUDY    68  39  34 E7        30.10S

$$

MSZ076-079-032100-
INTERIOR SOUTHEAST MISSISSIPPI

CITY           SKY/WX    TMP DP  RH WIND       PRES   REMARKS
LEAKESVILLE*   NOT AVBL
AGRICOLA*      NOT AVBL

$$

MARINE OBSERVATIONS

STATION/POSITION TIME  TEMP    WIND        PRES    WAVE
                       AIR SEA DIR/SP/G            HT/PER
                 (UTC) (F)     (DEG/KT/KT) (MB)    (FT/S)
PASCAGOULA       1948   63      80/ 12/ 22 1018.3F
PETIT BOIS ISLND 1948   62      70/ 19/ 25 1018.9F
GRAND BAY        1845   62      80/ 14     1020.0F
KATRINA CUT      1930   61      80/ 20     1018.3F
CEDAR POINT      1930   61      90/ 12     1019.0S
E DAUPHIN ISLAND 2000   63      80/ 17/ 18 1018.8F
MIDDLE BAY LIGHT 1930   64      70/  8     1019.3F
USCG MOBILE BAY  1948   62 61   50/  9/ 12 1020.1F
STATE DOCKS      1948   63 64              1019.4F
MEAHER PARK      1930   63      40/  3     1019.3F
WEEKS BAY        1845   65                   N/A
FORT MORGAN      1948   64     100/ 21/ 27 1018.2F
12 S ORANGE BCH  1950   65 70  100/ 16/ 21 1018.9R   6/ 7
PENSACOLA BAY    1948   65 63   80/  7/ 11 1019.4F
64 S DAUPHIN ISL 1950   72 76  110/ 19/ 23 1016.0F   9/ 8
67 S FORT MORGAN 1930   71     120/ 21     1016.3F

$$

SELECTED LOCATIONS ACROSS THE REGION

CITY           SKY/WX    TMP DP  RH WIND       PRES   REMARKS
NEW ORLEANS    CLOUDY    63  53  70 E17G31    30.00F
GULFPORT       CLOUDY    63  45  51 NE8       30.06F
PASCAGOULA AP  CLOUDY    66  37  34 E9        30.08F
PASCAGOULA*    NOT AVBL
HATTIESBURG    CLOUDY    55  40  56 E8        30.13F
LAUREL         CLOUDY    52  39  62 NE10      30.15F
MERIDIAN       LGT RAIN  49  46  90 NE12      30.20F
JACKSON        LGT RAIN  48  45  89 NE12      30.16S
MONTGOMERY     CLOUDY    54  39  57 NW9       30.22R
TROY           CLOUDY    58  34  40 N6        30.18R
ASHFORD*         N/A     59  36  41 E7        30.14S
DOTHAN         CLOUDY    61  32  33 E13       30.18R
PANAMA CITY    MOSUNNY   69  34  27 NE7       30.09F

$$





USA.gov is the U.S. government's official web portal to all federal, state and local government web resources and services.